Location: Gull Harbor
(47.1000°N, 122.9000°W)
Time: 17:09:20
(UTC-07:00)

ISS - Pass Details

Date: 30 March 2019
Orbit: 408 x 410 km, 51.6° (Epoch: 21 April)

Event Time Altitude Azimuth Distance (km) Brightness Sun altitude
Rises 22:07:55 0° 294° (WNW) 2,339 1.3 -24.3°
Reaches altitude 10° 22:10:02 10° 298° (WNW) 1,476 0.0 -24.6°
Enters shadow 22:12:02 32° 311° (NW) 721 -2.0 -24.8°
